Simultaneous Nadir Overpasses (SNOs) Predictions

Prediction of SNOs between FY3D and AQUA Satellite Orbit:

Table of predicted SNOs for the next 14.0 days since TLE Epoch: 5/11/2024
Index Date (FY3D) Time (FY3D) Lat,Lon (FY3D) SZA (FY3D ) Date (AQUA) Time (AQUA) Lat,Lon (AQUA) SZA (AQUA ) Distance(km) Time Diff (sec)
1 05/12/2024 17:21:17 79.41, -99.65 61.55 05/12/2024 17:22:03 79.42, -99.72 61.55 1.47 46
2 05/12/2024 18:11:57 -79.25, 69.02 118.70 05/12/2024 18:11:20 -79.24, 69.12 118.70 2.18 37
3 05/15/2024 05:25:01 -79.48,-101.13 118.95 05/15/2024 05:25:59 -79.48,-101.12 118.97 0.31 58
4 05/15/2024 06:15:40 79.27, 67.96 60.74 05/15/2024 06:15:16 79.27, 68.01 60.74 0.91 24
5 05/17/2024 17:28:42 79.46,-101.79 60.45 05/17/2024 17:29:48 79.47,-101.91 60.45 2.57 66
6 05/17/2024 18:19:20 -79.25, 67.22 119.86 05/17/2024 18:19:03 -79.26, 67.18 119.85 0.87 17
7 05/20/2024 05:32:23 -79.48,-102.88 120.05 05/20/2024 05:33:30 -79.48,-102.90 120.07 0.56 67
8 05/20/2024 06:23:02 79.28, 66.15 59.65 05/20/2024 06:22:47 79.28, 66.15 59.65 0.10 15
9 05/22/2024 17:36:04 79.49,-103.83 59.47 05/22/2024 17:37:08 79.50,-103.89 59.47 1.35 64



Historial Predications of SNOs between FY3D and AQUA
